Flag for U.S.A. Weather past 2 weeks in Topeka, Kansas, U.S.A.

Now
54 °F

Clear.


Feels Like: 53 °F
Forecast: 46 / 75 °F
Wind: 5 mph from Southeast

Location: Philip Billard Municipal Airport


UV Index: 5 (Moderate)

Visibility: 10 mi


Pressure: 30.15 "Hg

Humidity: 64%

Dew point: 42 °F

Location of TopekaLocation

Historic Weather in Topeka

°F

Topeka temperature yesterday

Maximum temperature yesterday: 70 °F (at 4:53 PM)
Minimum temperature yesterday: 31 °F (at 6:53 AM)
Average temperature yesterday: 52 °F

Past Weeks' High & Low Weather Summary

 TemperatureHumidityPressure
High84 °F (Apr 12, 2:53 PM)100% (Apr 13, 3:53 PM)30.34 "Hg (Apr 13, 3:53 PM)
Low28 °F (Apr 5, 4:53 AM)17% (Apr 9, 4:53 PM)29.38 "Hg (Apr 13, 1:53 PM)
Average53 °F54%29.97 "Hg
* Reported Apr 3 11:00 PM — Apr 18 10:53 PM, Topeka, Weather by CustomWeather, © 2014

Note: Actual official high and low records may vary slightly from our data, if they occured in-between our weather recording intervals... More about our weather records

Advertising

Historic Weather Conditions — Data for Previous 24 hours

 ConditionsComfort  
Time TempWeatherWind HumidityBarometerVisibility
10:53 PM
Apr 18
55 °FClear.5 mph62%30.16 "Hg10 mi
9:53 PM55 °FClear.8 mph62%30.15 "Hg10 mi
8:53 PM58 °FSunny.7 mph54%30.14 "Hg10 mi
7:53 PM62 °FSunny.8 mph46%30.13 "Hg10 mi
6:53 PM68 °FSunny.13 mph38%30.14 "Hg10 mi
5:53 PM70 °FSunny.13 mph37%30.14 "Hg10 mi
4:53 PM70 °FSunny.12 mph37%30.16 "Hg10 mi
3:53 PM69 °FSunny.14 mph38%30.18 "Hg10 mi
2:53 PM69 °FSunny.13 mph36%30.22 "Hg10 mi
1:53 PM66 °FSunny.6 mph39%30.25 "Hg10 mi
12:53 PM63 °FSunny.9 mph45%30.27 "Hg10 mi
11:53 AM59 °FSunny.8 mph48%30.29 "Hg8 mi
10:53 AM54 °FSunny.6 mph55%30.32 "Hg6 mi
9:53 AM49 °FSunny.5 mph66%30.33 "Hg4 mi
8:53 AM41 °FSunny.No wind82%30.34 "Hg3 mi
7:53 AM36 °FFog.No wind89%30.34 "Hg1 mi
6:53 AM31 °FIce fog.3 mph92%30.32 "Hg1 mi
6:01 AM33 °FFog.No wind88%30.29 "Hg3 mi
5:04 AM35 °FFog.No wind88%30.28 "Hg2 mi
3:53 AM35 °FClear.No wind82%30.29 "Hg3 mi
2:53 AM36 °FClear.No wind82%30.29 "Hg3 mi
1:53 AM38 °FClear.No wind79%30.30 "Hg4 mi
12:53 AM38 °FClear.No wind83%30.30 "Hg4 mi
Weather by CustomWeather, © 2014

See weather overview